Tracking 35331 objects as of 14-Sep-2026
HD Live streaming from Space Station
objects crossing your sky now

PEGASUS DEB

Track PEGASUS DEB now!
10-day predictions


NORAD ID: 24378
Int'l Code: 1994-029QF
Launch date: May 19, 1994
Source: United States (US)
Launch site: AIR FORCE WESTERN TEST RANGE (AFWTR)

Note: This is SATELLITE DEBRIS
Your satellite tracking list
Your tracking list is empty




NASA's NSSDC Master Catalog

Two Line Element Set (TLE):
1 24378U 94029QF  26256.72756966  .00000580  00000-0  99861-4 0  9997
2 24378  82.0322 164.6205 0158170 283.8699  74.4948 14.59280121711574
Source of the keplerian elements: AFSPC